Regional Weather Roundup
Issued by NWS

Home | Current Version | Previous Version | Text Only | Print | Product List | Glossary On
Versions: 1 2 3 4 5 6 7 8 9 10 11 12 13 14 15 16 17 18 19 20 21 22 23 24 25 26 27 28 29 30 31 32 33 34 35 36 37 38 39 40 41 42 43 44 45 46 47 48 49 50
264
ASUS43 KBIS 050210
RWRND

NORTH DAKOTA REGIONAL WEATHER ROUNDUP
NATIONAL WEATHER SERVICE BISMARCK ND
900 PM CDT WED MAY 04 2016

NOTE: "FAIR" INDICATES FEW OR NO CLOUDS BELOW 12,000 FEET WITH NO
SIGNIFICANT WEATHER AND/OR OBSTRUCTIONS TO VISIBILITY.


NDZ001>003-009>011-017-050300-
NORTHWEST NORTH DAKOTA

CITY           SKY/WX    TMP DP  RH WIND       PRES   REMARKS
WILLISTON      CLEAR     75  39  27 S5        29.85F
MINOT          CLEAR     78  38  23 S5        29.86F
MINOT AFB      CLEAR     72  40  31 SW7       29.85S
$$

NDZ018>021-031>035-040>046-050300-
SOUTHWEST NORTH DAKOTA

CITY           SKY/WX    TMP DP  RH WIND       PRES   REMARKS
BISMARCK       CLEAR     63  48  58 S8        29.94S
DICKINSON      CLEAR     64  42  44 S7        29.92F
GARRISON         N/A     70  41  34 S5        29.89F
HETTINGER ARPT CLEAR     64  43  46 S9        29.99S
$$

NDZ004>008-012>016-024-026-027-054-050300-
NORTHEAST NORTH DAKOTA

CITY           SKY/WX    TMP DP  RH WIND       PRES   REMARKS
GRAND FORKS    MOCLDY    65  30  27 SE7       29.93F
GRND FRKS AFB  MOCLDY    61  30  31 SE9       29.93F
DEVILS LAKE    PTCLDY    63  44  50 S7        29.91F
$$

NDZ022-023-025-028>030-036>039-047>053-050300-
SOUTHEAST NORTH DAKOTA

CITY           SKY/WX    TMP DP  RH WIND       PRES   REMARKS
FARGO          PTCLDY    62  22  21 E3        29.96S
JAMESTOWN      PTCLDY    65  37  35 S6        29.95F
$$





USA.gov is the U.S. government's official web portal to all federal, state and local government web resources and services.